User: anonymous   Login
Location: Albany
(35.0000°S, 118.0000°E)
Time: 00:23:46
(UTC-05:00)
Language:

Transit 2A - Orbit

View from above orbital plane
View from above orbital plane
View from above satellite
View from above satellite

Ground track
Ground track

The orbit data is extracted from the following two-line orbital elements,

1    45U 60007A   17346.08737292 -.00000067 +00000-0 +10584-4 0  9997
2    45 066.6950 280.8541 0262920 264.2416 092.8657 14.33581724991067
Epoch (UTC): 12 December 2017 02:05:49
Eccentricity: 0.0262920
inclination: 66.6950°
perigee height: 591 km
apogee height: 968 km
right ascension of ascending node: 280.8541°
argument of perigee: 264.2416°
revolutions per day: 14.33581724
mean anomaly at epoch: 92.8657°
orbit number at epoch: 99106

The dashed part of the orbit path shows where the satellite is in the earth's shadow,  

DLR